Darstellungsparameter: Aktuell verwendete Einstellungen:
Skalierung der Graphiken ... ?
xyx+y,   Skalierungsfaktor:      Skalierung: Modus: x, Faktor: 1
Darstellungszeitraum ... ?
Vom - - bis: - -   Zeitraum: 25.02.2021 - 25.02.2021
Min/Max/Avg-Anzeige ... ?
Zeige MMA aktuell
Zeige MMA Monat
Zeige MMA alles
Zeige --A aktuell
Zeige --A Monat
Zeige --A alles
Keine MMA-Anzeige
MMA:
Keine MMA-Graphiken
MMA-Basis: 25.02.2021 - 25.02.2021
Quicknavigation für Darstellung... ?
Tage:      1T, 2T, 3T, 5T -1T -2T -3T -5T +1T +2T +3T +5T
Wochen: 1W, 2W, 3W -1W -2W -3W +1W +2W +3W
Monate: 1M, 3M, 6M -1M -3M -6M +1M +3M +6M
Jahre:    1J, 3J, 5J, 10J -1J -3J -5J -10J +1J +3J +5J +10J
Nutze für die Darstellung ... ?
Originaldaten oder Mittelwerte auf ...
Stundenbasis Tagesbasis Wochenbasis
Monatsbasis Jahresbasis      Datenbasis: Original-Daten
Darstellen als:
Statistik (Auto) Statistik J:M      Darstellung:

Der gewünschte Datumsbereich war nicht gültig/verfügbar und wurde korrigiert....
Das angegebene Enddatum (30.09.2023 23:59:59) liegt in der Zukunft.
Das angegebene Startdatum (30.09.2023 00:00:00) liegt in der Zukunft.


Zur Graphik,    zurück zur Übersicht aller Sensoren.
 
Tabellarische Datenbersicht: ?
 
Sensor: Nr:Datum:Temp:Abs-Feuchte:Windchill:Wind:
Aussen-T/F 1 25-02-2021 01:00:00 6.7 C 7.22 g/m*3 6.7 C 1.6 km/h
2 25-02-2021 01:05:00 6.7 C 7.22 g/m*3 6.7 C 0 km/h
3 25-02-2021 01:10:00 6.6 C 7.17 g/m*3 6.6 C 0 km/h
4 25-02-2021 01:15:00 6.5 C 7.12 g/m*3 6.5 C 0 km/h
5 25-02-2021 01:20:00 6.4 C 7 g/m*3 6.4 C 1.6 km/h
6 25-02-2021 01:25:00 6.2 C 6.91 g/m*3 6.2 C 0 km/h
7 25-02-2021 01:30:00 6.1 C 6.87 g/m*3 6.1 C 0 km/h
8 25-02-2021 01:35:00 6 C 6.82 g/m*3 6 C 0 km/h
9 25-02-2021 01:40:00 5.8 C 6.73 g/m*3 5.8 C 0 km/h
10 25-02-2021 01:45:00 5.7 C 6.69 g/m*3 5.7 C 1.6 km/h
11 25-02-2021 01:50:00 5.6 C 6.65 g/m*3 5.6 C 1.6 km/h
12 25-02-2021 01:55:00 5.6 C 6.65 g/m*3 5.6 C 0 km/h
13 25-02-2021 02:00:00 5.6 C 6.72 g/m*3 5.6 C 0 km/h
14 25-02-2021 02:05:00 5.7 C 6.76 g/m*3 5.7 C 0 km/h
15 25-02-2021 02:10:00 5.8 C 6.81 g/m*3 5.8 C 0 km/h
16 25-02-2021 02:15:00 5.8 C 6.81 g/m*3 5.8 C 0 km/h
17 25-02-2021 02:20:00 5.7 C 6.76 g/m*3 5.7 C 0 km/h
18 25-02-2021 02:25:00 5.6 C 6.72 g/m*3 5.6 C 0 km/h
19 25-02-2021 02:30:00 5.6 C 6.72 g/m*3 5.6 C 0 km/h
20 25-02-2021 02:35:00 5.6 C 6.72 g/m*3 5.6 C 0 km/h
21 25-02-2021 02:40:00 5.6 C 6.72 g/m*3 5.6 C 0 km/h
22 25-02-2021 02:45:00 5.5 C 6.67 g/m*3 5.5 C 0 km/h
23 25-02-2021 02:50:00 5.5 C 6.67 g/m*3 5.5 C 0 km/h
24 25-02-2021 02:55:00 5.4 C 6.63 g/m*3 5.4 C 0 km/h
25 25-02-2021 03:00:00 5.4 C 6.63 g/m*3 5.4 C 0 km/h
Sensor: Nr:Datum:Temp:Abs-Feuchte:Windchill:Wind:
Aussen-T/F 26 25-02-2021 03:05:00 5.4 C 6.63 g/m*3 5.4 C 0 km/h
27 25-02-2021 03:10:00 5.3 C 6.58 g/m*3 5.3 C 0 km/h
28 25-02-2021 03:15:00 5.2 C 6.54 g/m*3 5.2 C 0 km/h
29 25-02-2021 03:20:00 5.3 C 6.58 g/m*3 5.3 C 0 km/h
30 25-02-2021 03:25:00 5.3 C 6.58 g/m*3 5.3 C 0 km/h
31 25-02-2021 03:30:00 5.3 C 6.58 g/m*3 5.3 C 0 km/h
32 25-02-2021 03:35:00 5.2 C 6.54 g/m*3 5.2 C 0 km/h
33 25-02-2021 03:40:00 5.1 C 6.5 g/m*3 5.1 C 0 km/h
34 25-02-2021 03:45:00 5 C 6.46 g/m*3 5 C 0 km/h
35 25-02-2021 03:50:00 4.9 C 6.41 g/m*3 4.9 C 0 km/h
36 25-02-2021 03:55:00 4.9 C 6.41 g/m*3 4.9 C 0 km/h
37 25-02-2021 04:00:00 4.8 C 6.37 g/m*3 4.8 C 0 km/h
38 25-02-2021 04:05:00 4.7 C 6.33 g/m*3 4.7 C 0 km/h
39 25-02-2021 04:10:00 4.6 C 6.29 g/m*3 4.6 C 0 km/h
40 25-02-2021 04:15:00 4.5 C 6.24 g/m*3 4.5 C 0 km/h
41 25-02-2021 04:20:00 4.5 C 6.24 g/m*3 4.5 C 0 km/h
42 25-02-2021 04:25:00 4.4 C 6.2 g/m*3 4.4 C 0 km/h
43 25-02-2021 04:30:00 4.5 C 6.24 g/m*3 4.5 C 0 km/h
44 25-02-2021 04:35:00 4.4 C 6.2 g/m*3 4.4 C 0 km/h
45 25-02-2021 04:40:00 4.3 C 6.16 g/m*3 4.3 C 0 km/h
46 25-02-2021 04:45:00 4.3 C 6.16 g/m*3 4.3 C 0 km/h
47 25-02-2021 04:50:00 4.3 C 6.16 g/m*3 4.3 C 0 km/h
48 25-02-2021 04:55:00 4.4 C 6.2 g/m*3 4.4 C 0 km/h
49 25-02-2021 05:00:00 4.4 C 6.2 g/m*3 4.4 C 0 km/h
50 25-02-2021 05:05:00 4.4 C 6.27 g/m*3 4.4 C 1.6 km/h
Sensor: Nr:Datum:Temp:Abs-Feuchte:Windchill:Wind:
Aussen-T/F 51 25-02-2021 05:10:00 4.4 C 6.27 g/m*3 4.4 C 0 km/h
52 25-02-2021 05:15:00 4.4 C 6.27 g/m*3 4.4 C 0 km/h
53 25-02-2021 05:20:00 4.3 C 6.16 g/m*3 4.3 C 0 km/h
54 25-02-2021 05:25:00 4.3 C 6.23 g/m*3 4.3 C 0 km/h
55 25-02-2021 05:30:00 4.2 C 6.19 g/m*3 4.2 C 0 km/h
56 25-02-2021 05:35:00 4.2 C 6.19 g/m*3 4.2 C 0 km/h
57 25-02-2021 05:40:00 4.1 C 6.08 g/m*3 4.1 C 0 km/h
58 25-02-2021 05:45:00 3.9 C 6 g/m*3 3.9 C 0 km/h
59 25-02-2021 05:50:00 3.8 C 5.96 g/m*3 3.8 C 0 km/h
60 25-02-2021 05:55:00 3.7 C 5.92 g/m*3 3.7 C 0 km/h
61 25-02-2021 06:00:00 3.7 C 5.92 g/m*3 3.7 C 0 km/h
62 25-02-2021 06:05:00 3.7 C 5.98 g/m*3 3.7 C 0 km/h
63 25-02-2021 06:10:00 3.7 C 5.98 g/m*3 3.7 C 0 km/h
64 25-02-2021 06:15:00 3.7 C 5.98 g/m*3 3.7 C 0 km/h
65 25-02-2021 06:20:00 3.8 C 6.02 g/m*3 3.8 C 0 km/h
66 25-02-2021 06:25:00 3.9 C 6.06 g/m*3 3.9 C 0 km/h
67 25-02-2021 06:30:00 3.9 C 6.06 g/m*3 3.9 C 0 km/h
68 25-02-2021 06:35:00 3.9 C 6.06 g/m*3 3.9 C 0 km/h
69 25-02-2021 06:40:00 3.8 C 6.02 g/m*3 3.8 C 0 km/h
70 25-02-2021 06:45:00 3.7 C 5.98 g/m*3 3.7 C 0 km/h
71 25-02-2021 06:50:00 3.7 C 5.98 g/m*3 3.7 C 0 km/h
72 25-02-2021 06:55:00 3.7 C 5.98 g/m*3 3.7 C 0 km/h
73 25-02-2021 07:00:00 3.7 C 5.98 g/m*3 3.7 C 0 km/h
74 25-02-2021 07:05:00 3.5 C 5.9 g/m*3 3.5 C 0 km/h
75 25-02-2021 07:10:00 3.4 C 5.86 g/m*3 3.4 C 0 km/h
Sensor: Nr:Datum:Temp:Abs-Feuchte:Windchill:Wind:
Aussen-T/F 76 25-02-2021 07:15:00 3.3 C 5.82 g/m*3 3.3 C 0 km/h
77 25-02-2021 07:20:00 3.3 C 5.82 g/m*3 3.3 C 0 km/h
78 25-02-2021 07:25:00 3.3 C 5.82 g/m*3 3.3 C 0 km/h
79 25-02-2021 07:30:00 3.3 C 5.82 g/m*3 3.3 C 0 km/h
80 25-02-2021 07:35:00 3.2 C 5.79 g/m*3 3.2 C 0 km/h
81 25-02-2021 07:40:00 3.2 C 5.79 g/m*3 3.2 C 0 km/h
82 25-02-2021 07:45:00 3.2 C 5.79 g/m*3 3.2 C 0 km/h
83 25-02-2021 07:50:00 3.3 C 5.82 g/m*3 3.3 C 0 km/h
84 25-02-2021 07:55:00 3.3 C 5.82 g/m*3 3.3 C 0 km/h
85 25-02-2021 08:00:00 3.4 C 5.86 g/m*3 3.4 C 0 km/h
86 25-02-2021 08:05:00 3.5 C 5.9 g/m*3 3.5 C 0 km/h
87 25-02-2021 08:10:00 3.5 C 5.9 g/m*3 3.5 C 0 km/h
88 25-02-2021 08:15:00 3.6 C 5.94 g/m*3 3.6 C 0 km/h
89 25-02-2021 08:20:00 3.7 C 5.98 g/m*3 3.7 C 0 km/h
90 25-02-2021 08:25:00 3.8 C 6.09 g/m*3 3.8 C 0 km/h
91 25-02-2021 08:30:00 3.9 C 6.06 g/m*3 3.9 C 0 km/h
92 25-02-2021 08:35:00 3.9 C 6.06 g/m*3 3.9 C 0 km/h
93 25-02-2021 08:40:00 3.9 C 6.06 g/m*3 3.9 C 0 km/h
94 25-02-2021 08:45:00 3.9 C 6.06 g/m*3 3.9 C 0 km/h
95 25-02-2021 08:50:00 3.9 C 6.06 g/m*3 3.9 C 0 km/h
96 25-02-2021 08:55:00 3.9 C 6.06 g/m*3 3.9 C 0 km/h
97 25-02-2021 09:00:00 3.9 C 6.06 g/m*3 3.9 C 0 km/h
98 25-02-2021 09:05:00 3.9 C 6.06 g/m*3 3.9 C 0 km/h
99 25-02-2021 09:10:00 4 C 6.1 g/m*3 4 C 0 km/h
100 25-02-2021 09:15:00 4.1 C 6.21 g/m*3 4.1 C 0 km/h
Sensor: Nr:Datum:Temp:Abs-Feuchte:Windchill:Wind:
Aussen-T/F 101 25-02-2021 09:20:00 4.2 C 6.25 g/m*3 4.2 C 0 km/h
102 25-02-2021 09:25:00 4.4 C 6.33 g/m*3 4.4 C 0 km/h
103 25-02-2021 09:30:00 4.6 C 6.42 g/m*3 4.6 C 0 km/h
104 25-02-2021 09:35:00 4.8 C 6.5 g/m*3 4.8 C 0 km/h
105 25-02-2021 09:40:00 5 C 6.59 g/m*3 5 C 0 km/h
106 25-02-2021 09:45:00 5.2 C 6.68 g/m*3 5.2 C 0 km/h
107 25-02-2021 09:50:00 5.3 C 6.72 g/m*3 5.3 C 0 km/h
108 25-02-2021 09:55:00 5.4 C 6.77 g/m*3 5.4 C 0 km/h
109 25-02-2021 10:00:00 5.5 C 6.81 g/m*3 5.5 C 0 km/h
110 25-02-2021 10:05:00 5.6 C 6.86 g/m*3 5.6 C 0 km/h
111 25-02-2021 10:10:00 5.7 C 6.9 g/m*3 5.7 C 0 km/h
112 25-02-2021 10:15:00 5.9 C 6.99 g/m*3 5.9 C 0 km/h
113 25-02-2021 10:20:00 6 C 7.04 g/m*3 6 C 0 km/h
114 25-02-2021 10:25:00 6.2 C 7.13 g/m*3 6.2 C 0 km/h
115 25-02-2021 10:30:00 6.3 C 7.18 g/m*3 6.3 C 0 km/h
116 25-02-2021 10:35:00 6.5 C 7.27 g/m*3 6.5 C 0 km/h
117 25-02-2021 10:40:00 6.8 C 7.42 g/m*3 6.8 C 1.6 km/h
118 25-02-2021 10:45:00 7.2 C 7.61 g/m*3 7.2 C 0 km/h
119 25-02-2021 10:50:00 7.4 C 7.71 g/m*3 7.4 C 0 km/h
120 25-02-2021 10:55:00 7.7 C 7.95 g/m*3 7.7 C 3.2 km/h
121 25-02-2021 11:00:00 7.9 C 8.05 g/m*3 7.9 C 0 km/h
122 25-02-2021 11:05:00 8.2 C 8.12 g/m*3 8.2 C 0 km/h
123 25-02-2021 11:10:00 8.4 C 8.23 g/m*3 8.4 C 0 km/h
124 25-02-2021 11:15:00 8.7 C 8.48 g/m*3 8.7 C 1.6 km/h
125 25-02-2021 11:20:00 8.9 C 8.58 g/m*3 8.9 C 3.2 km/h
Sensor: Nr:Datum:Temp:Abs-Feuchte:Windchill:Wind:
Aussen-T/F 126 25-02-2021 11:25:00 9.2 C 8.66 g/m*3 9.2 C 0 km/h
127 25-02-2021 11:30:00 9.4 C 8.77 g/m*3 9.4 C 1.6 km/h
128 25-02-2021 11:35:00 9.7 C 9.03 g/m*3 9.7 C 0 km/h
129 25-02-2021 11:40:00 9.8 C 9 g/m*3 9.8 C 4.8 km/h
130 25-02-2021 11:45:00 10 C 9.11 g/m*3 10 C 3.2 km/h
131 25-02-2021 11:50:00 10.3 C 9.1 g/m*3 10.3 C 0 km/h
132 25-02-2021 11:55:00 10.6 C 9.08 g/m*3 10.6 C 1.6 km/h
133 25-02-2021 12:00:00 11 C 8.91 g/m*3 11 C 4.8 km/h
134 25-02-2021 12:05:00 11.6 C 9.04 g/m*3 11.6 C 1.6 km/h
135 25-02-2021 12:10:00 12.1 C 8.9 g/m*3 12.1 C 3.2 km/h
136 25-02-2021 12:15:00 12.7 C 8.91 g/m*3 12.7 C 4.8 km/h
137 25-02-2021 12:20:00 13.3 C 9.01 g/m*3 13.3 C 0 km/h
138 25-02-2021 12:25:00 13.7 C 8.88 g/m*3 13.7 C 0 km/h
139 25-02-2021 12:30:00 14.2 C 8.55 g/m*3 14.2 C 0 km/h
140 25-02-2021 12:35:00 14.7 C 8.69 g/m*3 14.7 C 0 km/h
141 25-02-2021 12:40:00 15.2 C 8.83 g/m*3 15.2 C 0 km/h
142 25-02-2021 12:45:00 15.7 C 8.96 g/m*3 15.7 C 0 km/h
143 25-02-2021 12:50:00 16.1 C 8.64 g/m*3 16.1 C 0 km/h
144 25-02-2021 12:55:00 16.4 C 8.51 g/m*3 16.4 C 0 km/h
145 25-02-2021 13:00:00 16.6 C 9.04 g/m*3 16.6 C 0 km/h
146 25-02-2021 13:05:00 16.8 C 9.01 g/m*3 16.8 C 0 km/h
147 25-02-2021 13:10:00 16.9 C 8.49 g/m*3 16.9 C 0 km/h
148 25-02-2021 13:15:00 17.2 C 8.79 g/m*3 17.2 C 0 km/h
149 25-02-2021 13:20:00 17.3 C 8.84 g/m*3 17.3 C 0 km/h
150 25-02-2021 13:25:00 17.5 C 8.5 g/m*3 17.5 C 6.4 km/h
Sensor: Nr:Datum:Temp:Abs-Feuchte:Windchill:Wind:
Aussen-T/F 151 25-02-2021 13:30:00 17.7 C 8.75 g/m*3 17.7 C 4.8 km/h
152 25-02-2021 13:35:00 17.8 C 8.8 g/m*3 17.8 C 3.2 km/h
153 25-02-2021 13:40:00 18.1 C 8.96 g/m*3 18.1 C 1.6 km/h
154 25-02-2021 13:45:00 18.3 C 8.76 g/m*3 18.3 C 0 km/h
155 25-02-2021 13:50:00 18.6 C 9.23 g/m*3 18.6 C 0 km/h
156 25-02-2021 13:55:00 18.9 C 9.4 g/m*3 18.9 C 4.8 km/h
157 25-02-2021 14:00:00 19.3 C 9.29 g/m*3 19.3 C 4.8 km/h
158 25-02-2021 14:05:00 19.6 C 9.45 g/m*3 19.6 C 0 km/h
159 25-02-2021 14:10:00 19.8 C 9.39 g/m*3 19.8 C 0 km/h
160 25-02-2021 14:15:00 20 C 8.99 g/m*3 20 C 0 km/h
161 25-02-2021 14:20:00 20.1 C 9.04 g/m*3 20.1 C 0 km/h
162 25-02-2021 14:25:00 20.2 C 8.74 g/m*3 20.2 C 3.2 km/h
163 25-02-2021 14:30:00 20.3 C 8.79 g/m*3 20.3 C 3.2 km/h
164 25-02-2021 14:35:00 20.3 C 8.62 g/m*3 20.3 C 4.8 km/h
165 25-02-2021 14:40:00 20.1 C 8.34 g/m*3 20.1 C 3.2 km/h
166 25-02-2021 14:45:00 20 C 8.81 g/m*3 20 C 3.2 km/h
167 25-02-2021 14:50:00 19.8 C 8.37 g/m*3 19.8 C 3.2 km/h
168 25-02-2021 14:55:00 19.7 C 8.66 g/m*3 19.7 C 4.8 km/h
169 25-02-2021 15:00:00 19.5 C 8.73 g/m*3 19.5 C 4.8 km/h
170 25-02-2021 15:05:00 19.3 C 8.79 g/m*3 19.3 C 4.8 km/h
171 25-02-2021 15:10:00 19.2 C 8.74 g/m*3 19.2 C 4.8 km/h
172 25-02-2021 15:15:00 19.1 C 8.52 g/m*3 19.1 C 4.8 km/h
173 25-02-2021 15:20:00 19 C 8.64 g/m*3 19 C 6.4 km/h
174 25-02-2021 15:25:00 18.9 C 8.59 g/m*3 18.9 C 4.8 km/h
175 25-02-2021 15:30:00 18.8 C 8.37 g/m*3 18.8 C 4.8 km/h
Sensor: Nr:Datum:Temp:Abs-Feuchte:Windchill:Wind:
Aussen-T/F 176 25-02-2021 15:35:00 18.8 C 8.54 g/m*3 18.8 C 4.8 km/h
177 25-02-2021 15:40:00 18.8 C 8.37 g/m*3 18.8 C 8.1 km/h
178 25-02-2021 15:45:00 18.8 C 8.54 g/m*3 18.8 C 6.4 km/h
179 25-02-2021 15:50:00 18.8 C 8.37 g/m*3 18.8 C 4.8 km/h
180 25-02-2021 15:55:00 18.7 C 8.17 g/m*3 18.7 C 6.4 km/h
181 25-02-2021 16:00:00 18.8 C 8.21 g/m*3 18.8 C 6.4 km/h
182 25-02-2021 16:05:00 18.8 C 8.37 g/m*3 18.8 C 3.2 km/h
183 25-02-2021 16:10:00 18.8 C 8.37 g/m*3 18.8 C 0 km/h
184 25-02-2021 16:15:00 18.8 C 8.05 g/m*3 18.8 C 0 km/h
185 25-02-2021 16:20:00 18.8 C 8.05 g/m*3 18.8 C 6.4 km/h
186 25-02-2021 16:25:00 18.7 C 8.17 g/m*3 18.7 C 3.2 km/h
187 25-02-2021 16:30:00 18.7 C 7.84 g/m*3 18.7 C 8.1 km/h
188 25-02-2021 16:35:00 18.6 C 8.12 g/m*3 18.6 C 1.6 km/h
189 25-02-2021 16:40:00 18.4 C 8.02 g/m*3 18.4 C 4.8 km/h
190 25-02-2021 16:45:00 18.2 C 7.77 g/m*3 18.2 C 1.6 km/h
191 25-02-2021 16:50:00 17.9 C 7.79 g/m*3 17.9 C 6.4 km/h
192 25-02-2021 16:55:00 17.7 C 7.85 g/m*3 17.7 C 3.2 km/h
193 25-02-2021 17:00:00 17.4 C 7.26 g/m*3 17.4 C 4.8 km/h
194 25-02-2021 17:05:00 17.2 C 7.91 g/m*3 17.2 C 8.1 km/h
195 25-02-2021 17:10:00 16.8 C 8.01 g/m*3 16.8 C 6.4 km/h
196 25-02-2021 17:15:00 16.4 C 7.96 g/m*3 16.4 C 6.4 km/h
197 25-02-2021 17:20:00 16.1 C 7.81 g/m*3 16.1 C 6.4 km/h
198 25-02-2021 17:25:00 15.7 C 7.89 g/m*3 15.7 C 6.4 km/h
199 25-02-2021 17:30:00 15.4 C 7.75 g/m*3 15.4 C 6.4 km/h
200 25-02-2021 17:35:00 15.2 C 7.79 g/m*3 15.2 C 6.4 km/h
Sensor: Nr:Datum:Temp:Abs-Feuchte:Windchill:Wind:
Aussen-T/F 201 25-02-2021 17:40:00 14.9 C 7.77 g/m*3 14.9 C 8.1 km/h
202 25-02-2021 17:45:00 14.6 C 7.76 g/m*3 14.6 C 6.4 km/h
203 25-02-2021 17:50:00 14.4 C 7.66 g/m*3 14.4 C 6.4 km/h
204 25-02-2021 17:55:00 14.2 C 7.69 g/m*3 14.2 C 6.4 km/h
205 25-02-2021 18:00:00 13.9 C 7.67 g/m*3 13.9 C 6.4 km/h
206 25-02-2021 18:05:00 13.7 C 7.58 g/m*3 13.7 C 6.4 km/h
207 25-02-2021 18:10:00 13.6 C 7.65 g/m*3 13.6 C 4.8 km/h
208 25-02-2021 18:15:00 13.3 C 7.63 g/m*3 13.3 C 4.8 km/h
209 25-02-2021 18:20:00 13.1 C 7.53 g/m*3 13.1 C 4.8 km/h
210 25-02-2021 18:25:00 12.9 C 7.44 g/m*3 12.9 C 6.4 km/h
211 25-02-2021 18:30:00 12.7 C 7.46 g/m*3 12.7 C 6.4 km/h
212 25-02-2021 18:35:00 12.6 C 7.41 g/m*3 12.6 C 6.4 km/h
213 25-02-2021 18:40:00 12.4 C 7.43 g/m*3 12.4 C 4.8 km/h
214 25-02-2021 18:45:00 12.3 C 7.38 g/m*3 12.3 C 4.8 km/h
215 25-02-2021 18:50:00 12.2 C 7.34 g/m*3 12.2 C 4.8 km/h
216 25-02-2021 18:55:00 12.1 C 7.29 g/m*3 12.1 C 6.4 km/h
217 25-02-2021 19:00:00 12 C 7.25 g/m*3 12 C 6.4 km/h
218 25-02-2021 19:05:00 11.9 C 7.31 g/m*3 11.9 C 1.6 km/h
219 25-02-2021 19:10:00 11.8 C 7.26 g/m*3 11.8 C 1.6 km/h
220 25-02-2021 19:15:00 11.7 C 7.22 g/m*3 11.7 C 0 km/h
221 25-02-2021 19:20:00 11.7 C 7.22 g/m*3 11.7 C 0 km/h
222 25-02-2021 19:25:00 11.7 C 7.32 g/m*3 11.7 C 4.8 km/h
223 25-02-2021 19:30:00 11.7 C 7.32 g/m*3 11.7 C 6.4 km/h
224 25-02-2021 19:35:00 11.7 C 7.32 g/m*3 11.7 C 4.8 km/h
225 25-02-2021 19:40:00 11.7 C 7.43 g/m*3 11.7 C 0 km/h
Sensor: Nr:Datum:Temp:Abs-Feuchte:Windchill:Wind:
Aussen-T/F 226 25-02-2021 19:45:00 11.6 C 7.38 g/m*3 11.6 C 0 km/h
227 25-02-2021 19:50:00 11.4 C 7.29 g/m*3 11.4 C 0 km/h
228 25-02-2021 19:55:00 11.3 C 7.34 g/m*3 11.3 C 0 km/h
229 25-02-2021 20:00:00 11.2 C 7.4 g/m*3 11.2 C 0 km/h
230 25-02-2021 20:05:00 11.1 C 7.45 g/m*3 11.1 C 0 km/h
231 25-02-2021 20:10:00 10.9 C 7.36 g/m*3 10.9 C 0 km/h
232 25-02-2021 20:15:00 10.8 C 7.31 g/m*3 10.8 C 0 km/h
233 25-02-2021 20:20:00 10.8 C 7.41 g/m*3 10.8 C 0 km/h
234 25-02-2021 20:25:00 10.8 C 7.31 g/m*3 10.8 C 0 km/h
235 25-02-2021 20:30:00 10.8 C 7.41 g/m*3 10.8 C 0 km/h
236 25-02-2021 20:35:00 10.8 C 7.41 g/m*3 10.8 C 0 km/h
237 25-02-2021 20:40:00 10.7 C 7.37 g/m*3 10.7 C 0 km/h
238 25-02-2021 20:45:00 10.6 C 7.42 g/m*3 10.6 C 1.6 km/h
239 25-02-2021 20:50:00 10.5 C 7.18 g/m*3 10.5 C 4.8 km/h
240 25-02-2021 20:55:00 10.4 C 7.23 g/m*3 10.4 C 3.2 km/h
241 25-02-2021 21:00:00 10.3 C 7.28 g/m*3 10.3 C 3.2 km/h
242 25-02-2021 21:05:00 10.3 C 7.28 g/m*3 10.3 C 4.8 km/h
243 25-02-2021 21:10:00 10.2 C 7.23 g/m*3 10.2 C 4.8 km/h
244 25-02-2021 21:15:00 10.2 C 7.23 g/m*3 10.2 C 4.8 km/h
245 25-02-2021 21:20:00 10.2 C 7.23 g/m*3 10.2 C 4.8 km/h
246 25-02-2021 21:25:00 10.1 C 7.19 g/m*3 9.1 C 8.1 km/h
247 25-02-2021 21:30:00 10.1 C 7.19 g/m*3 10.1 C 0 km/h
248 25-02-2021 21:35:00 10 C 7.14 g/m*3 10 C 3.2 km/h
249 25-02-2021 21:40:00 9.9 C 7.1 g/m*3 9.9 C 4.8 km/h
250 25-02-2021 21:45:00 9.8 C 7.05 g/m*3 9.8 C 1.6 km/h
Sensor: Nr:Datum:Temp:Abs-Feuchte:Windchill:Wind:
Aussen-T/F 251 25-02-2021 21:50:00 9.7 C 7.01 g/m*3 9.7 C 0 km/h
252 25-02-2021 21:55:00 9.6 C 6.96 g/m*3 9.6 C 0 km/h
253 25-02-2021 22:00:00 9.5 C 6.92 g/m*3 9.5 C 0 km/h
254 25-02-2021 22:05:00 9.4 C 6.96 g/m*3 9.4 C 1.6 km/h
255 25-02-2021 22:10:00 9.3 C 6.92 g/m*3 9.3 C 0 km/h
256 25-02-2021 22:15:00 9.2 C 6.88 g/m*3 9.2 C 0 km/h
257 25-02-2021 22:20:00 9.1 C 6.83 g/m*3 9.1 C 0 km/h
258 25-02-2021 22:25:00 8.8 C 6.79 g/m*3 8.8 C 0 km/h
259 25-02-2021 22:30:00 8.6 C 6.7 g/m*3 8.6 C 0 km/h
260 25-02-2021 22:35:00 8.4 C 6.79 g/m*3 8.4 C 0 km/h
261 25-02-2021 22:40:00 8.3 C 6.83 g/m*3 8.3 C 1.6 km/h
262 25-02-2021 22:45:00 8.2 C 6.78 g/m*3 8.2 C 1.6 km/h
263 25-02-2021 22:50:00 8.2 C 6.78 g/m*3 8.2 C 0 km/h
264 25-02-2021 22:55:00 8.1 C 6.74 g/m*3 8.1 C 0 km/h

Legende:
   Min
   Max


Maximal/Minimal-Werte vom 25.02.2021 - 25.02.2021

Sensor Min Max Avg
Temp
(Aussen-T/F)
3.2 °C
25-02-2021  07:35:00
20.3 °C
25-02-2021  14:30:00
9.8 °C
Abs-Feuchte
(Aussen-T/F)
5.79 g/m*3
25-02-2021  07:35:00
9.45 g/m*3
25-02-2021  14:05:00
7.23 g/m*3
Windchill
(Aussen-T/F)
3.2 C
25-02-2021  07:35:00
20.3 C
25-02-2021  14:30:00
9.75 C

Die Daten stammen von einer Davis Vantage Pro 2 Wetter-Station und werden unter Linux mit der Software wview2wettercgi und aufbereitet. Alle Angaben erfolgen ohne Gewähr für ihre Vollständigkeit oder Richtigkeit.
Kontakt: Rainer Krienke krienke@uni-koblenz.de . Meine Webseiten an der Uni Koblenz oder privat.
Version: $Revision: 0.78 $